West Vancouver, British Columbia

8:42 PM PDT on May 25, 2017 (GMT -0700)
West Vancouver

Weather History for CWWA - October, 2011

Change the Weather History Date:

Wednesday, October 26, 2011

  Actual Average Record
Temperature  
Mean Temperature 42 °F -  
Max Temperature 45 °F - - ()
Min Temperature 38 °F - - ()
Degree Days  
Heating Degree Days 24    
Moisture  
Dew Point 38 °F    
Average Humidity 84    
Maximum Humidity 95    
Minimum Humidity 70    
Precipitation  
Precipitation 0.08 in - - ()
Sea Level Pressure  
Sea Level Pressure 30.26 in    
Wind  
Wind Speed 2 mph ()    
Max Wind Speed 7 mph    
Max Gust Speed -    
T = Trace of Precipitation, MM = Missing Value Source: Averaged Metar Reports

Daily Weather History Graph

Daily Weather History Graph

Search for Another Location

Airport or City:

Trip Planner

Search our weather history database for the weather conditions in past years. The results will help you decide how hot, cold, wet, or windy it might be!

Date:

Astronomy

Oct. 26, 2011 Rise Set
Actual Time 7:50 AM PDT 6:01 PM PDT
Civil Twilight 7:17 AM PDT 6:34 PM PDT
Nautical Twilight 6:40 AM PDT 7:11 PM PDT
Astronomical Twilight 6:03 AM PDT 7:48 PM PDT
Moon 7:51 AM PDT 5:40 PM PDT
Length of Visible Light 11h 16m
Length of Day
10h 10m
Waning Crescent, 0% of the Moon is Illuminated
Oct 26
Waning Crescent
Oct 26
New
Nov 2
First Quarter
Nov 10
Full
Nov 18
Last Quarter

Hourly Weather History & Observations

Time (PDT) Temp. Windchill Dew Point Humidity Pressure Visibility Wind Dir Wind Speed Gust Speed Precip Events Conditions
12:00 AM 39.7 °F - 35.8 °F 86% 30.39 in - North 1.2 mph - N/A   Unknown
1:00 AM 39.7 °F - 36.1 °F 87% 30.38 in - North 1.2 mph - N/A   Unknown
2:00 AM 39.0 °F - 35.8 °F 88% 30.37 in - North 1.2 mph - N/A   Unknown
4:00 AM 41.7 °F - 38.5 °F 88% 30.33 in - NNE 2.3 mph - N/A   Unknown
5:00 AM 39.7 °F - 36.9 °F 89% 30.31 in - WNW 1.2 mph - N/A   Unknown
6:00 AM 44.1 °F 42.5 °F 37.9 °F 79% 30.29 in - ENE 3.5 mph - N/A   Unknown
7:00 AM 45.5 °F 43.2 °F 37.6 °F 74% 30.28 in - East 4.6 mph - N/A   Unknown
8:00 AM 45.1 °F - 37.4 °F 74% 30.29 in - ENE 2.3 mph - N/A   Unknown
9:00 AM 42.4 °F 39.6 °F 39.2 °F 88% 30.26 in - East 4.6 mph - 0.05 in   Unknown
10:00 AM 44.6 °F 41.4 °F 38.5 °F 79% 30.24 in - East 5.8 mph - 0.01 in   Unknown
11:00 AM 45 °F - 38 °F 70% 30.24 in - East 4.6 mph - -  
11:00 AM 44.8 °F 42.4 °F 38.5 °F 79% 30.24 in - East 4.6 mph - N/A   Unknown
12:00 PM 45.5 °F 42.5 °F 37.9 °F 75% 30.24 in - ENE 5.8 mph - N/A   Unknown
1:00 PM 44.6 °F 40.7 °F 39.7 °F 83% 30.22 in - ENE 6.9 mph - N/A   Unknown
2:00 PM 45.5 °F 44.2 °F 39.4 °F 79% 30.19 in - ENE 3.5 mph - N/A   Unknown
3:00 PM 45.3 °F 43.0 °F 37.9 °F 75% 30.19 in - ENE 4.6 mph - N/A   Unknown
4:00 PM 44.8 °F 42.4 °F 37.9 °F 77% 30.19 in - East 4.6 mph - N/A   Unknown
5:00 PM 44 °F - 39 °F 76% 30.18 in - East 3.5 mph - -  
5:00 PM 44.4 °F 42.9 °F 39.0 °F 81% 30.18 in - East 3.5 mph - 0.02 in   Unknown
6:00 PM 44.1 °F - 38.8 °F 82% 30.19 in - NNE 1.2 mph - N/A   Unknown
7:00 PM 43.0 °F - 41.2 °F 93% 30.21 in - North 2.3 mph - N/A   Unknown
8:00 PM 42.4 °F - 40.6 °F 93% 30.23 in - NNE 1.2 mph - N/A   Unknown
9:00 PM 42.3 °F - 40.6 °F 94% 30.24 in - NNE 1.2 mph - N/A   Unknown
10:00 PM 39.4 °F - 37.9 °F 95% 30.25 in - North 2.3 mph - N/A   Unknown
11:00 PM 39 °F - 38 °F 94% 30.27 in - NE 1.2 mph - -  
11:00 PM 39.2 °F - 37.9 °F 95% 30.27 in - NE 1.2 mph - N/A   Unknown